This demonstration page uses our WeatherBlox Daily Observations layout. Learn more.

Left ArrowRight Arrow

Hourly Observations for April 8, 2019

Temp ( °F °C ) Dew Point ( °F °C ) Humidity (%) Winds ( mph kmh ) Pressure ( in mb ) Visibility ( mi km ) Precip ( " mm )
12:53 am 00:53 Clear 64 17.8 64 17.8 100 100 Calm 30.07 1018 10 16 0.00 0.00
1:53 am 01:53 Clear 64 17.8 64 17.8 100 100 Calm 30.05 1018 10 16 0.00 0.00
2:53 am 02:53 Clear 63 17.2 63 17.2 100 100 Calm 30.04 1017 9 14 0.00 0.00
3:53 am 03:53 Mostly Cloudy with Light Rain 62 16.7 62 16.7 100 100 Calm 30.03 1017 10 16 0.00 0.03
4:53 am 04:53 Clear 61 16.1 61 16.1 100 100 Calm 30.01 1016 7 11 0.00 0.03
5:53 am 05:53 Clear 61 16.1 61 16.1 100 100 Calm 29.98 1015 10 16 0.00 0.00
6:53 am 06:53 Clear 67 19.4 66 18.9 97 97 SSE 7 11 29.97 1015 10 16 0.00 0.03
7:53 am 07:53 Sunny 68 20 66 18.9 93 93 SSE 7 11 29.98 1015 10 16 0.00 0.00
8:53 am 08:53 Cloudy 68 20 66 18.9 93 93 S 6 9 29.98 1015 10 16 0.00 0.00
9:53 am 09:53 Partly Cloudy 71 21.7 66 18.9 84 84 S 7 11 29.98 1015 10 16 0.00 0.00
10:53 am 10:53 Cloudy 72 22.2 66 18.9 82 82 S 10 17 29.97 1015 10 16 0.00 0.00
11:53 am 11:53 Cloudy 72 22.2 66 18.9 82 82 S 7 11 29.98 1015 10 16 0.00 0.00
12:53 pm 12:53 Cloudy 74 23.3 67 19.4 79 79 S 7 11 29.95 1014 10 16 0.00 0.00
1:53 pm 13:53 Cloudy 75 23.9 66 18.9 74 74 SW 10 17 29.91 1013 10 16 0.00 0.00
2:53 pm 14:53 Mostly Cloudy 74 23.3 63 17.2 69 69 SSW 14 22 29.90 1013 10 16 0.00 0.00
3:53 pm 15:53 Cloudy 72 22.2 64 17.8 76 76 SSW 13 20 29.88 1012 10 16 0.00 0.03
4:53 pm 16:53 Mostly Cloudy 72 22.2 64 17.8 76 76 SW 6 9 29.86 1011 10 16 0.00 0.00
5:53 pm 17:53 Cloudy with Light Rain 69 20.6 67 19.4 93 93 Calm 29.84 1011 7 11 0.05 1.27
6:17 pm 18:17 Partly Cloudy 71 21.7 68 20 90 90 S 5 7 29.82 1010 10 16 0.00 0.03
6:53 pm 18:53 Partly Cloudy 71 21.7 68 20 90 90 SSW 5 7 29.83 1010 10 16 0.00 0.03
7:04 pm 19:04 Mostly Cloudy 71 21.7 68 20 90 90 SSW 6 9 29.82 1010 10 16 0.00 0.00
7:12 pm 19:12 Partly Cloudy 71 21.7 67 19.4 87 87 SW 6 9 29.82 1010 10 16 0.00 0.00
7:53 pm 19:53 Mostly Cloudy 70 21.1 68 20 93 93 Calm 29.83 1010 10 16 0.00 0.00
8:53 pm 20:53 Mostly Clear 68 20 68 20 100 100 Calm 29.84 1011 10 16 0.00 0.00
9:53 pm 21:53 Cloudy 66 18.9 66 18.9 100 100 WNW 3 6 29.86 1011 7 11 0.00 0.00
10:53 pm 22:53 Clear 66 18.9 66 18.9 100 100 Calm 29.86 1011 10 16 0.00 0.00
11:21 pm 23:21 Partly Cloudy with Mist and Fog 65 18.3 65 18.3 100 100 Calm 29.86 1011 2 2 0.00 0.00
11:28 pm 23:28 Mostly Cloudy 65 18.3 65 18.3 100 100 Calm 29.86 1011 10 16 0.00 0.00
11:53 pm 23:53 Mostly Cloudy 65 18.3 65 18.3 100 100 Calm 29.85 1011 10 16 0.00 0.00

Powered by AerisWeather